Lid_Strength_Index
-1 -1 -1 -1 -1 -0 0 1 1 1 1 0 -0 -0 -0 -0 -0 -1 -1 -1 -1 -1 -1 -1 -1 -2 3 5 6 3 -2 -1 2 2 2 3 4 4 7 7 7 9 9 9 9 10 10
-1 -1 -1 -1 -1 -0 0 1 1 1 1 1 0 -0 -0 -0 -0 -0 -0 -1 -1 -1 -1 -1 -1 -0 4 7 4 3 4 3 2 2 3 2 4 4 7 8 8 8 9 10 10 11 11
-1 -1 -1 -1 -1 -1 0 1 1 1 1 1 0 0 0 0 0 0 -0 -0 -1 -1 -1 -2 -2 4 5 7 4 3 4 3 2 2 4 3 4 5 6 9 8 9 11 11 11 10 11
-1 -1 -1 -1 -1 -1 -0 1 1 1 1 1 1 1 1 1 1 0 -0 -0 -0 -1 -0 -0 1 4 6 5 3 4 3 4 3 3 4 3 4 6 7 7 9 10 10 12 11 11 11
-1 -1 -1 -1 -1 -1 -1 0 1 1 1 1 1 1 1 1 1 1 0 0 -1 0 -0 1 4 5 7 5 5 5 4 5 5 5 5 5 5 7 7 8 9 10 10 10 12 10 11
-1 -1 -1 -1 -1 -1 -1 0 1 1 1 1 1 1 2 2 1 1 1 0 -0 3 3 4 4 6 6 7 6 5 5 5 5 6 6 6 6 8 8 9 12 11 11 11 11 10 11
-1 -1 -1 -1 -1 -1 -1 0 1 1 2 1 1 1 2 2 1 1 2 2 4 5 5 7 7 7 7 6 5 6 6 6 5 6 8 7 8 11 12 11 11 11 11 11 12 11 12
-2 -1 -0 -1 -1 -1 -0 0 1 1 2 1 1 1 2 2 2 2 2 4 5 4 7 7 7 7 6 6 7 6 5 7 7 8 8 8 11 11 11 11 11 11 12 11 12 12 12
-1 -1 -1 -1 -1 -1 -1 0 1 1 2 2 1 2 2 2 2 3 3 4 3 4 7 7 7 7 7 6 8 8 6 7 8 9 9 10 12 11 12 12 12 12 13 13 13 13 12
-1 -1 -1 -1 -1 -1 -1 0 1 1 2 2 2 2 2 2 4 2 3 3 2 3 9 9 8 7 7 7 9 7 7 8 8 10 10 11 11 12 12 13 13 12 13 14 13 14 13
-1 -1 -1 -1 -0 -0 -0 0 1 1 2 2 2 2 2 3 2 4 3 1 1 3 12 9 8 6 7 8 8 8 7 7 9 10 10 12 12 12 13 13 13 13 12 12 12 13 13
-1 -1 -1 -1 -1 0 0 0 1 1 2 2 2 2 3 2 2 2 1 2 2 9 13 10 8 9 9 8 9 8 8 7 8 10 10 12 11 12 13 13 13 13 12 12 12 12 14
0 -1 -1 -1 -0 0 1 0 1 1 1 2 3 3 3 3 3 1 1 3 9 11 9 10 10 9 9 10 10 9 10 10 10 11 11 12 12 12 12 13 12 12 12 13 14 14 14
1 1 0 -1 -0 -0 1 0 1 2 1 2 3 3 3 3 2 2 3 7 11 9 9 9 9 9 10 9 10 10 10 10 11 11 11 11 13 13 12 14 14 13 13 14 17 16 15
1 2 1 1 -1 0 0 1 1 3 2 3 4 3 3 2 3 2 5 10 10 8 8 10 9 10 10 10 10 10 10 11 11 12 12 12 13 13 13 13 14 13 13 14 15 15 16
2 1 2 2 1 -0 0 1 1 2 2 3 4 3 3 3 3 3 7 10 8 8 9 9 10 9 10 10 11 10 11 11 12 12 11 12 13 13 14 13 13 13 13 15 14 17 18
3 3 2 2 2 2 1 1 1 2 2 4 4 5 4 3 3 5 9 8 8 8 8 9 9 10 9 10 10 10 11 12 12 12 12 12 12 14 13 13 14 13 14 14 14 15 17
3 3 2 2 2 2 1 1 1 2 4 4 5 7 3 3 7 6 8 7 9 8 9 9 9 9 9 10 10 10 11 11 11 11 13 12 12 12 14 14 14 14 14 14 14 15 15
3 3 3 2 2 2 2 1 2 3 4 4 6 5 3 3 8 8 8 9 8 9 9 9 9 9 9 10 11 11 11 12 12 12 12 12 12 13 15 15 14 14 14 15 15 15 15
4 3 3 2 2 3 2 2 2 3 4 4 6 8 5 5 5 7 8 9 10 10 9 9 9 9 10 11 10 11 12 13 13 13 13 13 12 13 13 13 13 15 15 15 14 15 14
4 4 3 3 3 3 3 2 1 3 4 4 6 6 6 8 7 7 7 7 9 11 10 9 10 9 9 10 11 11 11 13 14 12 13 13 13 13 13 14 14 14 14 15 16 14 16
5 4 3 3 4 3 3 3 3 3 6 5 7 6 7 6 7 7 8 9 9 9 10 10 10 9 9 9 9 10 11 12 12 12 13 13 13 14 14 15 15 16 14 14 15 15 15
5 4 4 3 4 4 4 4 4 4 5 6 6 6 7 7 8 8 8 8 8 8 10 10 9 9 10 9 10 9 10 10 10 12 13 13 13 14 14 15 15 15 13 14 14 13 14
5 4 4 3 4 4 5 4 4 5 5 5 5 5 7 9 8 8 8 7 9 8 9 11 10 9 11 10 10 10 11 12 12 13 12 13 13 14 14 14 15 14 14 13 13 13 12
5 5 4 4 4 4 5 4 4 4 5 4 5 6 6 9 7 8 9 9 10 11 11 11 12 11 10 10 11 13 13 13 14 14 14 13 13 14 14 14 12 15 15 15 15 12 11
5 4 4 4 4 5 5 6 5 4 5 5 5 5 6 7 8 7 9 9 10 11 12 14 13 10 11 10 9 14 13 11 15 16 14 14 13 13 14 17 15 13 14 13 13 14 12
5 5 5 4 4 4 5 5 5 5 5 5 5 5 6 7 7 8 9 10 8 9 11 13 13 13 11 9 11 11 11 11 13 14 16 16 15 15 14 14 12 13 14 14 14 12 12
5 5 4 4 3 4 5 5 4 4 4 6 5 5 7 6 8 10 10 10 10 9 11 12 12 12 12 11 11 10 10 11 12 11 14 14 15 15 13 15 15 14 16 15 11 12 13
5 5 4 4 4 4 5 5 6 5 5 5 7 8 8 9 10 10 10 10 10 11 10 11 9 10 9 9 9 8 12 12 10 12 12 13 10 12 11 10 12 14 12 12 12 12 13